sat.trackr.live / text

‹ back to catalog

STARLINK-32570

NORAD 62137 · 2024-222Z

PAYLOAD ACTIVE UNKNOWN

§ Identity

Operator
Country
US
Launch date
2024-11-27
Launch site
AFETR
Launch vehicle
Mass (kg)
RCS (m²)

Purposes: comms

External: N2YO · Heavens-Above · Gunter

§ Orbital elements

Epoch: 2026-09-19T23:36:54.074880Z

Period
94.27 min
Inclination
43.0013°
Eccentricity
0.0001917
Mean motion
15.27585001 rev/d
Perigee alt
481.7 km
Apogee alt
484.3 km
Semi-major
6,861.2 km
B*
5.9668e-4
RAAN
118.9170°
Arg perigee
244.1727°
Mean anomaly
115.8927°
Rev number
10,261

§ Raw data

STARLINK-325701 62137U 24222Z   26262.98395920  .00016196  00000+0  59668-3 0  99932 62137  43.0013 118.9170 0001917 244.1727 115.8927 15.27585001102611

JSON: /api/v1/satellites/62137 · /tle

For live sub-satellite position, see the globe view (requires WebGL).

§ Visibility from observer

Set your observer location to see the next 7 days of passes ≥ 10°. The values pass through the URL so the page stays shareable.

No JS? Fill the form by hand. The geolocation button needs JavaScript.